Home   Weather   Biloxi   Past weeks
Flag for USA

Past Weather in Biloxi, Mississippi, USA — Yesterday and Last 2 Weeks

Now
74 °F

Passing clouds.


Feels Like: 70 °F
Forecast: 79 / 64 °F
Wind: No wind

Location: Keesler Air Force Base / Biloxi

Current Time: Oct 16, 2019 at 7:50:08 am

Latest Report: Oct 16, 2019 at 6:56 am


Visibility: 10 mi

Pressure: 29.89 "Hg

Humidity: 97%

Dew Point: 73 °F

Location of BiloxiLocation

Past Weather in Biloxi — Graph

°F

Biloxi Temperature Yesterday

Maximum temperature yesterday: 84 °F (at 11:56 am)
Minimum temperature yesterday: 71 °F (at 12:56 am)
Average temperature yesterday: 75 °F

High & Low Weather Summary for the Past Weeks

 TemperatureHumidityPressure
High95 °F (Oct 1, 1:56 pm)100% (Oct 7, 5:58 pm)30.09 "Hg (Oct 7, 5:58 pm)
Low61 °F (Oct 13, 5:06 am)41% (Oct 1, 1:56 pm)29.85 "Hg (Oct 15, 4:56 pm)
Average77 °F80%30.00 "Hg
* Reported Oct 1 5:56 am — Oct 16 5:56 am, Biloxi. Weather by CustomWeather, © 2019

Note: Actual official high and low records may vary slightly from our data, if they occured in-between our weather recording intervals... More about our weather records

Advertising

Biloxi Weather History for the Previous 24 Hours

Scroll right to see more
 ConditionsComfort  
Time TempWeatherWind HumidityBarometerVisibility
5:56 am
Wed, Oct 16
73 °FPassing clouds.No wind97%29.88 "Hg10 mi
4:56 am74 °FPassing clouds.No wind97%29.88 "Hg10 mi
3:56 am74 °FPassing clouds.No wind97%29.88 "Hg10 mi
3:06 am73 °FPartly cloudy.No wind100%29.89 "Hg10 mi
2:56 am74 °FPassing clouds.No wind97%29.89 "Hg10 mi
1:56 am73 °FPassing clouds.5 mph97%29.90 "Hg10 mi
12:59 am73 °FPassing clouds.No wind94%29.93 "Hg10 mi
12:29 am73 °FPassing clouds.No wind94%29.92 "Hg10 mi
12:20 am73 °FLight rain. Passing clouds.3 mph94%29.92 "Hg10 mi
11:56 pm
Tue, Oct 15
72 °FLight rain. Passing clouds.5 mph96%29.93 "Hg10 mi
11:30 pm72 °FLight rain. Passing clouds.No wind100%29.94 "Hg10 mi
11:11 pm72 °FPassing clouds.No wind100%29.93 "Hg10 mi
10:56 pm72 °FPassing clouds.3 mph96%29.93 "Hg10 mi
10:31 pm72 °FHeavy rain. Fog.No wind94%29.93 "Hg4 mi
10:01 pm72 °FRain. Fog.No wind94%29.93 "Hg4 mi
9:07 pm73 °FLight rain. Overcast.No wind94%29.91 "Hg10 mi
8:56 pm73 °FOvercast.No wind94%29.91 "Hg10 mi
8:44 pm73 °FMostly cloudy.3 mph94%29.91 "Hg10 mi
8:31 pm73 °FHeavy rain. Fog.3 mph94%29.90 "Hg2 mi
8:01 pm73 °FHeavy rain. Fog.7 mph94%29.91 "Hg6 mi
7:56 pm74 °FLight rain. Overcast.7 mph89%29.91 "Hg8 mi
6:56 pm80 °FPassing clouds.6 mph90%29.87 "Hg10 mi
5:56 pm81 °FSunny.9 mph88%29.87 "Hg10 mi
4:56 pm82 °FSunny.7 mph82%29.85 "Hg10 mi
3:56 pm83 °FSunny.9 mph78%29.87 "Hg10 mi
2:56 pm83 °FSunny.10 mph75%29.90 "Hg10 mi
1:56 pm84 °FPassing clouds.10 mph76%29.92 "Hg10 mi
12:56 pm84 °FSunny.10 mph74%29.95 "Hg10 mi
11:56 am84 °FSunny.12 mph73%29.98 "Hg10 mi
10:56 am80 °FSunny.No wind81%30.00 "Hg10 mi
9:56 am76 °FPassing clouds.3 mph89%30.01 "Hg10 mi
8:56 am74 °FScattered clouds.5 mph96%30.00 "Hg10 mi
7:56 am72 °FPartly sunny.3 mph97%30.00 "Hg10 mi
7:16 am72 °FMore clouds than sun.7 mph94%30.00 "Hg10 mi
Weather by CustomWeather, © 2019

See weather overview